Tracking 19827 objects as of 21-Aug-2019
HD Live streaming from Space Station
objects crossing your sky now

ESA/GOES

Track ESA/GOES now!
ESA/GOES is classified as:


NORAD ID: 9931
Int'l Code: 1977-029A
Perigee: 2,693.4 km
Apogee: 38,474.3 km
Inclination: 26.3 °
Period: 734.0 minutes
Semi major axis: 26954 km
RCS: 4.0849 m2 (large)
Launch date: April 20, 1977
Source: European Space Agency (ESA)
Launch site: AIR FORCE EASTERN TEST RANGE (AFETR)
aabbcc
Your satellite tracking list
Your tracking list is empty




NASA's NSSDC Master Catalog

Two Line Element Set (TLE):
1  9931U 77029A   19231.91215432  .00000371  00000-0  00000+0 0  9990
2  9931  26.3122 141.1876 6637179 271.3163  19.4823  1.96176874302955
Source of the keplerian elements: AFSPC